AEROCUBE 4.5A

Last updated on Wed Sep 17 2025 00:03:48 GMT+0000 (Coordinated Universal Time)

1 38767U 12048K 25259.06678139 .00037468 00000+0 85838-3 0 9991 2 38767 64.6445 256.0182 0090127 252.3467 106.7811 15.38336579329945
UTC large
Height (km)
Speed (km/s)
/
Latitude / Longitude
Inclination (degrees)
Orbital Period (minutes)
Azimuth
Elevation
Range (km)
Doppler Factor

Next 0 passes for location: London (51.5072 / 0.1276)

Sorry there are no passes over London.